SCP
0 0 0 0 0 0 0 0 0 0 0 0 0 0 0 0 0 0 0 0 0 0 0 -0 0 0 0 -0 0 0 0 0 0 0 0 0 0 0 0 0 0 0 0
0 0 0 0 0 0 0 0 0 0 0 0 0 0 0 0 0 0 0 0 0 0 0 -0 0 0 -0 -0 0 0 0 0 0 0 0 0 0 0 0 0 0 0 0
0 0 0 0 0 0 0 0 0 0 0 0 0 0 0 0 0 0 0 0 0 0 0 -0 -0 0 -0 -0 0 0 0 0 0 0 0 0 0 0 0 0 0 0 0
0 0 0 0 0 0 0 0 0 0 0 0 0 0 0 0 0 0 0 0 0 0 0 0 0 -0 0 0 0 0 0 0 0 0 0 0 0 0 0 0 0 0 0
0 0 0 0 0 0 0 0 0 0 0 0 0 0 0 0 0 0 0 0 0 0 0 0 -0 -0 0 0 0 0 0 0 0 0 0 0 0 0 0 0 0 0 0
0 0 0 0 0 0 0 0 0 0 0 0 0 0 0 0 0 0 0 0 0 0 -0 -0 -0 0 0 0 0 0 0 0 0 0 0 0 0 0 0 0 0 0 0
0 0 0 0 0 0 0 0 0 0 0 0 0 0 0 0 0 0 0 0 0 -0 0 0 -0 0 0 0 0 0 0 0 0 0 0 0 0 0 0 0 0 0 0
0 0 0 0 0 0 0 0 0 0 0 0 0 0 0 0 0 0 0 0 0 0 0 -0 -0 0 0 0 0 0 0 0 0 0 0 0 0 0 0 0 0 0 0
0 0 0 0 0 0 0 0 0 0 0 0 0 0 0 0 0 0 0 0 -0 0 0 0 -0 0 0 0 0 0 0 0 0 0 0 0 0 0 0 0 0 0 0
0 0 0 0 0 0 0 0 -0 -0 0 0 0 0 0 0 0 0 0 0 0 0 0 0 0 0 0 0 0 0 0 0 0 0 0 0 0 0 0 0 0 0 0
0 -0 -0 -0 -0 -0 -0 -0 -0 -0 0 0 0 0 0 0 0 0 0 0 0 0 0 0 0 0 0 0 0 0 0 0 0 0 0 0 0 0 0 0 0 0 0
-0 -0 -0 -0 -0 -0 -0 -0 -0 -0 0 0 0 0 0 0 0 0 0 0 0 0 0 0 0 0 0 0 0 0 0 0 0 0 0 0 0 0 0 0 0 0 0
-0 0 -0 -0 -0 -0 -0 0 0 -0 0 0 0 0 0 0 0 0 0 0 0 0 0 0 0 0 0 0 0 0 0 0 0 0 0 0 0 0 0 0 0 0 0
-0 -0 -0 -0 -0 -0 -0 -0 0 0 0 0 0 0 0 0 0 0 0 0 0 0 0 0 0 0 0 0 0 0 0 0 0 0 0 0 0 0 0 0 0 0 0
-0 -0 -0 -0 -0 -0 -0 -0 -0 -0 0 -0 0 0 0 0 0 0 0 0 0 0 0 0 0 0 0 0 0 0 0 0 0 0 0 0 0 0 0 0 0 0 0
-0 -0 -0 -0 -0 -0 -0 -0 -0 -0 -0 -0 0 0 0 0 0 0 0 0 0 0 0 0 -0 0 0 0 0 0 0 0 0 0 0 0 0 0 0 0 0 0 0
-0 -0 -0 -0 -0 -0 -0 -0 -0 -0 -0 -0 0 0 0 0 0 0 0 0 0 0 0 0 0 0 0 -0 0 0 0 0 0 0 -0 0 0 0 0 0 0 0 0
-0 -0 -0 -0 -0 -0 -0 -0 -0 -0 -0 -0 0 0 0 0 0 0 0 0 0 0 0 0 0 0 0 0 0 0 0 0 0 0 0 -0 0 0 0 0 0 0 0
-0 -0 -0 -0 -0 -0 -0 -0 -0 -0 -0 -0 -0 0 0 0 0 0 0 0 0 0 0 0 0 0 -0 0 0 0 -0 0 -0 0 0 0 -0 0 0 0 0 0 0
-0 -0 -0 0 -0 -0 -0 -0 -0 -0 -0 -0 -0 0 0 0 0 0 0 0 0 0 0 0 0 0 -0 0 0 0 0 -0 -0 -0 -0 0 0 0 0 -0 -0 0 -0
-0 -0 0 -0 -0 -0 -0 -0 -0 -0 -0 -0 -0 -0 0 0 0 0 0 0 0 0 0 0 0 0 0 0 0 0 0 0 -0 -0 0 -0 -0 -0 0 0 0 0 0
-0 -0 0 0 -0 -0 -0 -0 -0 -0 -0 -0 -0 -0 -0 0 0 0 0 0 0 0 0 0 0 0 0 0 0 0 0 0 0 -0 -0 -0 0 0 0 0 0 0 -0
-0 -0 -0 0 0 -0 -0 -0 -0 -0 -0 -0 -0 -0 -0 -0 -0 -0 0 0 0 0 0 0 0 0 0 0 0 -0 0 0 -0 -0 0 0 0 -0 -0 -0 -0 0 0
-0 -0 0 0 0 -0 -0 -0 -0 -0 -0 0 0 0 -0 0 0 0 0 0 0 0 0 0 0 0 -0 -0 -0 -0 -0 -0 0 0 0 0 0 -0 0 0 0 0 0
-0 -0 0 0 0 0 -0 -0 0 -0 -0 0 0 0 0 -0 0 0 0 0 0 0 0 0 0 0 0 0 -0 -0 0 0 0 -0 0 0 0 0 0 0 0 0 0
0 0 0 0 0 0 0 -0 0 0 0 0 0 0 0 0 0 0 0 0 0 0 -0 -0 -0 -0 -0 -0 -0 -0 -0 -0 -0 0 0 0 0 0 0 0 0 0 0
Wind_Speed_500mb
53 69 74 66 55 41 26 22 14 7 4 7 15 19 24 24 27 29 27 29 25 14 20 21 20 17 13 16 31 36 41 33 28 34 36 32 35 34 38 39 39 44 45
46 65 77 67 55 38 27 22 13 6 2 6 12 20 26 29 29 28 19 25 21 12 21 19 16 15 14 23 32 35 37 35 32 43 36 36 28 30 35 40 46 46 44
73 80 75 63 49 35 27 21 12 7 3 6 13 22 23 25 29 16 15 21 16 7 20 17 16 19 18 23 31 36 34 34 39 41 38 21 12 37 42 42 50 47 52
72 83 76 62 49 32 26 20 13 4 9 3 10 21 25 31 25 8 11 11 8 8 17 17 21 20 18 24 27 35 37 39 42 41 39 34 35 31 36 54 54 52 51
85 85 73 61 40 31 27 21 12 5 5 4 12 22 23 25 13 5 8 9 3 9 21 23 23 25 22 23 24 35 35 36 40 52 37 36 42 40 50 48 57 55 55
69 72 64 49 39 32 27 20 10 5 4 4 12 20 21 19 12 10 12 11 3 13 27 27 30 27 27 25 25 27 29 34 40 39 29 32 59 50 42 53 62 62 57
73 68 63 52 41 39 30 20 9 5 9 8 12 15 16 17 15 12 13 8 3 16 31 30 33 26 28 26 23 22 32 30 40 36 27 32 45 45 50 55 50 54 53
66 68 61 49 42 40 33 17 14 12 13 10 13 10 14 14 14 18 21 4 7 18 30 30 31 26 26 24 21 22 30 24 31 33 30 36 44 40 45 45 66 58 38
69 68 58 47 40 40 30 17 19 18 13 6 5 12 14 16 17 19 17 11 16 19 28 27 32 23 27 25 21 29 34 34 37 35 36 51 55 48 50 68 61 64 45
67 64 58 49 39 35 29 24 22 22 12 2 3 10 12 15 17 16 13 16 12 15 19 27 33 27 27 29 27 29 30 32 33 38 44 52 48 58 58 60 65 62 68
71 65 58 46 39 37 35 27 27 22 16 6 8 5 8 14 15 13 15 15 14 21 21 21 29 34 34 29 27 27 27 27 31 32 37 44 39 44 55 62 61 51 59
71 63 56 48 46 45 40 29 29 21 16 7 11 5 4 8 12 16 11 15 19 20 27 29 30 35 36 33 26 32 32 33 35 34 34 42 45 51 57 54 53 40 36
71 65 59 54 50 49 39 27 32 27 20 11 13 11 2 5 11 19 15 16 18 23 29 31 31 35 34 30 27 32 30 31 29 30 34 42 49 52 54 51 48 54 47
73 71 64 58 52 48 38 31 33 31 24 18 13 13 4 9 11 19 24 25 24 25 28 30 35 34 31 29 32 32 34 33 25 27 37 46 48 50 55 55 52 43 48
77 75 72 64 54 51 41 34 30 36 31 26 15 14 21 21 18 23 29 33 33 28 31 33 34 30 28 28 29 30 27 21 21 27 36 50 63 48 54 57 51 50 45
81 77 73 68 60 56 47 42 33 38 37 32 18 18 25 24 22 24 27 31 28 26 27 27 25 19 20 22 25 30 31 23 33 40 45 48 53 52 44 57 44 37 36
84 83 79 75 64 59 50 49 41 41 41 34 24 22 30 25 23 27 27 25 23 22 23 30 29 30 27 21 31 26 25 32 45 43 55 51 53 53 52 44 33 28 27
87 84 81 77 65 58 54 48 48 45 46 38 29 25 35 31 27 27 24 20 18 17 25 30 32 34 35 39 43 34 31 39 41 47 50 60 57 54 42 32 25 23 25
84 85 79 74 68 64 59 56 57 50 50 42 35 28 42 39 33 33 26 24 21 20 23 28 33 34 35 29 30 37 40 46 48 47 47 50 45 35 29 27 25 23 22
79 86 85 79 71 70 67 64 62 59 56 43 36 30 42 41 35 39 30 28 23 24 28 28 29 32 33 33 30 35 38 42 44 41 41 38 36 36 37 33 29 28 28
84 84 86 83 76 75 74 69 67 66 53 41 37 39 32 42 38 39 37 32 28 24 30 32 33 28 26 30 31 33 33 34 36 37 42 37 34 31 29 30 35 26 29
91 86 89 87 81 77 79 75 70 62 53 45 42 46 37 39 38 38 37 34 39 33 31 30 36 35 32 30 28 27 23 23 25 28 33 33 34 32 33 35 37 32 29
91 91 91 90 85 83 81 73 67 63 58 52 47 51 46 42 42 41 38 39 36 46 39 36 32 39 45 39 33 30 29 24 26 23 27 35 36 36 34 32 31 30 30
91 94 91 91 88 87 84 65 63 63 60 57 54 54 56 51 50 46 42 40 42 46 51 42 40 32 36 43 46 43 34 32 32 31 34 33 35 37 34 34 33 30 29
92 94 93 89 87 88 87 74 65 69 65 63 59 61 61 56 53 50 45 43 40 42 52 52 43 41 38 39 42 45 41 33 36 35 41 42 44 46 43 40 36 31 29
93 94 90 84 86 86 82 73 69 72 67 68 67 68 68 65 60 55 52 46 34 31 38 42 43 40 31 28 35 42 44 41 43 45 50 50 49 49 48 45 40 38 38
Wind_Direction_500mb
220 204 196 196 200 205 209 204 211 196 153 261 289 305 317 323 316 310 309 318 317 278 237 218 225 237 231 207 193 195 202 199 200 202 203 191 200 199 192 199 199 189 191
201 188 188 195 204 197 198 194 193 156 158 286 292 312 318 326 321 310 301 324 312 274 225 208 217 214 199 189 184 195 199 203 197 187 163 165 182 198 198 197 189 188 189
181 179 185 192 193 188 193 186 179 147 222 250 309 317 315 322 325 314 295 325 314 269 184 192 199 189 181 186 190 187 190 192 182 193 180 153 170 177 190 198 191 189 187
184 181 184 187 184 187 179 176 175 183 225 295 332 337 344 339 338 329 325 337 330 173 180 180 174 172 170 179 186 196 192 187 183 180 185 194 193 168 166 192 189 185 192
185 184 184 181 178 183 173 175 172 227 228 269 335 348 354 4 5 8 346 4 340 179 166 160 157 164 169 173 187 189 194 187 188 183 182 200 188 176 163 157 175 180 182
179 183 178 176 175 172 171 171 189 159 183 242 333 341 350 13 18 3 340 342 187 172 170 167 163 157 166 164 172 185 186 192 193 198 203 194 178 180 189 148 162 170 183
179 178 175 175 174 173 175 176 175 150 192 230 319 348 2 28 18 10 346 328 181 173 176 175 171 161 162 159 168 182 188 197 186 188 192 190 188 188 184 173 156 160 162
180 176 177 176 176 175 179 178 157 184 190 223 326 12 15 15 14 10 0 11 136 159 174 181 174 164 172 171 169 171 181 174 188 185 187 194 202 186 174 190 171 160 156
178 177 176 178 174 176 184 183 178 189 193 223 6 38 27 21 13 8 15 80 124 139 171 173 171 161 166 178 180 176 173 177 184 183 183 176 167 178 182 179 184 169 153
176 176 178 176 177 181 180 180 187 191 191 228 84 54 18 22 20 20 68 88 123 136 155 170 177 178 172 175 177 179 180 176 183 187 182 187 183 176 179 175 171 172 163
177 177 178 177 181 183 180 180 183 184 189 218 156 97 1 17 41 60 100 70 99 127 156 156 162 166 168 167 174 173 176 184 179 179 179 186 190 181 176 171 171 173 169
178 178 178 180 184 184 182 185 183 193 197 173 168 156 29 19 46 78 99 87 106 111 136 147 149 156 157 156 154 153 162 169 168 169 169 172 178 173 174 176 170 162 173
177 177 178 184 188 187 187 184 192 196 187 179 168 166 10 68 65 67 98 116 113 113 122 132 142 150 152 154 159 150 148 162 165 164 170 168 170 178 177 173 155 143 142
179 178 182 187 190 190 190 190 186 194 188 189 183 178 119 123 90 77 98 132 128 116 129 134 145 149 154 159 162 157 148 145 148 168 174 174 171 162 162 154 153 156 151
181 184 187 189 193 193 192 190 184 191 192 190 182 161 134 122 109 100 100 119 127 127 139 143 148 155 162 172 180 185 178 181 178 179 174 173 164 165 168 163 149 146 145
187 191 193 192 194 196 192 189 183 192 195 192 187 158 152 133 118 119 106 117 124 114 134 147 148 151 163 172 179 185 185 169 161 156 158 166 160 160 149 154 151 146 154
192 195 196 196 194 197 193 190 186 191 193 194 188 168 161 158 140 136 124 120 112 110 120 142 151 143 133 155 168 174 158 150 147 150 149 146 148 147 149 143 141 149 158
195 200 199 198 198 197 194 189 188 193 192 193 189 175 170 174 159 155 152 139 114 119 119 128 149 142 126 106 128 142 145 151 157 156 153 155 158 152 151 153 157 161 163
200 202 202 201 198 195 193 189 190 193 194 192 190 185 181 182 178 175 167 155 141 134 134 128 137 144 141 152 132 136 132 144 141 146 150 160 164 166 163 164 159 156 157
201 204 204 201 199 194 192 190 192 195 197 197 192 193 189 188 189 185 180 168 162 148 152 146 141 137 134 140 146 148 149 151 154 156 160 165 171 170 168 172 172 169 159
204 206 206 202 199 195 193 194 195 198 202 199 193 194 187 190 190 184 192 193 184 171 165 162 162 160 153 146 148 151 151 151 150 157 161 162 165 166 167 178 184 186 198
204 207 207 204 200 197 195 196 199 200 199 196 192 199 190 184 190 193 192 196 202 198 180 175 177 177 175 175 178 180 187 176 169 165 170 174 177 180 180 182 191 195 196
205 206 207 204 202 199 199 200 202 197 195 195 192 198 198 194 194 197 198 200 200 199 195 192 188 187 193 195 197 196 195 197 199 193 185 186 186 184 180 177 177 181 188
201 203 204 205 202 201 203 206 202 196 195 197 197 201 202 201 202 205 206 206 204 203 204 207 207 203 203 205 206 206 202 197 191 192 193 190 189 185 184 183 188 198 209
199 201 203 204 206 202 204 204 203 197 196 199 200 205 208 207 206 212 211 214 218 215 209 212 213 212 216 213 210 211 206 198 188 190 188 187 188 188 189 196 204 210 220
195 196 200 204 207 205 205 204 203 202 199 197 202 206 210 210 211 211 215 218 222 223 226 227 225 227 232 224 213 211 210 207 198 195 194 194 195 197 200 206 214 221 230
Wind_Speed_850mb
53 69 74 66 55 41 26 22 14 7 4 7 15 19 24 24 27 29 27 29 25 14 20 21 20 17 13 16 31 36 41 33 28 34 36 32 35 34 38 39 39 44 45
46 65 77 67 55 38 27 22 13 6 2 6 12 20 26 29 29 28 19 25 21 12 21 19 16 15 14 23 32 35 37 35 32 43 36 36 28 30 35 40 46 46 44
73 80 75 63 49 35 27 21 12 7 3 6 13 22 23 25 29 16 15 21 16 7 20 17 16 19 18 23 31 36 34 34 39 41 38 21 12 37 42 42 50 47 52
72 83 76 62 49 32 26 20 13 4 9 3 10 21 25 31 25 8 11 11 8 8 17 17 21 20 18 24 27 35 37 39 42 41 39 34 35 31 36 54 54 52 51
85 85 73 61 40 31 27 21 12 5 5 4 12 22 23 25 13 5 8 9 3 9 21 23 23 25 22 23 24 35 35 36 40 52 37 36 42 40 50 48 57 55 55
69 72 64 49 39 32 27 20 10 5 4 4 12 20 21 19 12 10 12 11 3 13 27 27 30 27 27 25 25 27 29 34 40 39 29 32 59 50 42 53 62 62 57
73 68 63 52 41 39 30 20 9 5 9 8 12 15 16 17 15 12 13 8 3 16 31 30 33 26 28 26 23 22 32 30 40 36 27 32 45 45 50 55 50 54 53
66 68 61 49 42 40 33 17 14 12 13 10 13 10 14 14 14 18 21 4 7 18 30 30 31 26 26 24 21 22 30 24 31 33 30 36 44 40 45 45 66 58 38
69 68 58 47 40 40 30 17 19 18 13 6 5 12 14 16 17 19 17 11 16 19 28 27 32 23 27 25 21 29 34 34 37 35 36 51 55 48 50 68 61 64 45
67 64 58 49 39 35 29 24 22 22 12 2 3 10 12 15 17 16 13 16 12 15 19 27 33 27 27 29 27 29 30 32 33 38 44 52 48 58 58 60 65 62 68
71 65 58 46 39 37 35 27 27 22 16 6 8 5 8 14 15 13 15 15 14 21 21 21 29 34 34 29 27 27 27 27 31 32 37 44 39 44 55 62 61 51 59
71 63 56 48 46 45 40 29 29 21 16 7 11 5 4 8 12 16 11 15 19 20 27 29 30 35 36 33 26 32 32 33 35 34 34 42 45 51 57 54 53 40 36
71 65 59 54 50 49 39 27 32 27 20 11 13 11 2 5 11 19 15 16 18 23 29 31 31 35 34 30 27 32 30 31 29 30 34 42 49 52 54 51 48 54 47
73 71 64 58 52 48 38 31 33 31 24 18 13 13 4 9 11 19 24 25 24 25 28 30 35 34 31 29 32 32 34 33 25 27 37 46 48 50 55 55 52 43 48
77 75 72 64 54 51 41 34 30 36 31 26 15 14 21 21 18 23 29 33 33 28 31 33 34 30 28 28 29 30 27 21 21 27 36 50 63 48 54 57 51 50 45
81 77 73 68 60 56 47 42 33 38 37 32 18 18 25 24 22 24 27 31 28 26 27 27 25 19 20 22 25 30 31 23 33 40 45 48 53 52 44 57 44 37 36
84 83 79 75 64 59 50 49 41 41 41 34 24 22 30 25 23 27 27 25 23 22 23 30 29 30 27 21 31 26 25 32 45 43 55 51 53 53 52 44 33 28 27
87 84 81 77 65 58 54 48 48 45 46 38 29 25 35 31 27 27 24 20 18 17 25 30 32 34 35 39 43 34 31 39 41 47 50 60 57 54 42 32 25 23 25
84 85 79 74 68 64 59 56 57 50 50 42 35 28 42 39 33 33 26 24 21 20 23 28 33 34 35 29 30 37 40 46 48 47 47 50 45 35 29 27 25 23 22
79 86 85 79 71 70 67 64 62 59 56 43 36 30 42 41 35 39 30 28 23 24 28 28 29 32 33 33 30 35 38 42 44 41 41 38 36 36 37 33 29 28 28
84 84 86 83 76 75 74 69 67 66 53 41 37 39 32 42 38 39 37 32 28 24 30 32 33 28 26 30 31 33 33 34 36 37 42 37 34 31 29 30 35 26 29
91 86 89 87 81 77 79 75 70 62 53 45 42 46 37 39 38 38 37 34 39 33 31 30 36 35 32 30 28 27 23 23 25 28 33 33 34 32 33 35 37 32 29
91 91 91 90 85 83 81 73 67 63 58 52 47 51 46 42 42 41 38 39 36 46 39 36 32 39 45 39 33 30 29 24 26 23 27 35 36 36 34 32 31 30 30
91 94 91 91 88 87 84 65 63 63 60 57 54 54 56 51 50 46 42 40 42 46 51 42 40 32 36 43 46 43 34 32 32 31 34 33 35 37 34 34 33 30 29
92 94 93 89 87 88 87 74 65 69 65 63 59 61 61 56 53 50 45 43 40 42 52 52 43 41 38 39 42 45 41 33 36 35 41 42 44 46 43 40 36 31 29
93 94 90 84 86 86 82 73 69 72 67 68 67 68 68 65 60 55 52 46 34 31 38 42 43 40 31 28 35 42 44 41 43 45 50 50 49 49 48 45 40 38 38
Wind_Direction_850mb
220 204 196 196 200 205 209 204 211 196 153 261 289 305 317 323 316 310 309 318 317 278 237 218 225 237 231 207 193 195 202 199 200 202 203 191 200 199 192 199 199 189 191
201 188 188 195 204 197 198 194 193 156 158 286 292 312 318 326 321 310 301 324 312 274 225 208 217 214 199 189 184 195 199 203 197 187 163 165 182 198 198 197 189 188 189
181 179 185 192 193 188 193 186 179 147 222 250 309 317 315 322 325 314 295 325 314 269 184 192 199 189 181 186 190 187 190 192 182 193 180 153 170 177 190 198 191 189 187
184 181 184 187 184 187 179 176 175 183 225 295 332 337 344 339 338 329 325 337 330 173 180 180 174 172 170 179 186 196 192 187 183 180 185 194 193 168 166 192 189 185 192
185 184 184 181 178 183 173 175 172 227 228 269 335 348 354 4 5 8 346 4 340 179 166 160 157 164 169 173 187 189 194 187 188 183 182 200 188 176 163 157 175 180 182
179 183 178 176 175 172 171 171 189 159 183 242 333 341 350 13 18 3 340 342 187 172 170 167 163 157 166 164 172 185 186 192 193 198 203 194 178 180 189 148 162 170 183
179 178 175 175 174 173 175 176 175 150 192 230 319 348 2 28 18 10 346 328 181 173 176 175 171 161 162 159 168 182 188 197 186 188 192 190 188 188 184 173 156 160 162
180 176 177 176 176 175 179 178 157 184 190 223 326 12 15 15 14 10 0 11 136 159 174 181 174 164 172 171 169 171 181 174 188 185 187 194 202 186 174 190 171 160 156
178 177 176 178 174 176 184 183 178 189 193 223 6 38 27 21 13 8 15 80 124 139 171 173 171 161 166 178 180 176 173 177 184 183 183 176 167 178 182 179 184 169 153
176 176 178 176 177 181 180 180 187 191 191 228 84 54 18 22 20 20 68 88 123 136 155 170 177 178 172 175 177 179 180 176 183 187 182 187 183 176 179 175 171 172 163
177 177 178 177 181 183 180 180 183 184 189 218 156 97 1 17 41 60 100 70 99 127 156 156 162 166 168 167 174 173 176 184 179 179 179 186 190 181 176 171 171 173 169
178 178 178 180 184 184 182 185 183 193 197 173 168 156 29 19 46 78 99 87 106 111 136 147 149 156 157 156 154 153 162 169 168 169 169 172 178 173 174 176 170 162 173
177 177 178 184 188 187 187 184 192 196 187 179 168 166 10 68 65 67 98 116 113 113 122 132 142 150 152 154 159 150 148 162 165 164 170 168 170 178 177 173 155 143 142
179 178 182 187 190 190 190 190 186 194 188 189 183 178 119 123 90 77 98 132 128 116 129 134 145 149 154 159 162 157 148 145 148 168 174 174 171 162 162 154 153 156 151
181 184 187 189 193 193 192 190 184 191 192 190 182 161 134 122 109 100 100 119 127 127 139 143 148 155 162 172 180 185 178 181 178 179 174 173 164 165 168 163 149 146 145
187 191 193 192 194 196 192 189 183 192 195 192 187 158 152 133 118 119 106 117 124 114 134 147 148 151 163 172 179 185 185 169 161 156 158 166 160 160 149 154 151 146 154
192 195 196 196 194 197 193 190 186 191 193 194 188 168 161 158 140 136 124 120 112 110 120 142 151 143 133 155 168 174 158 150 147 150 149 146 148 147 149 143 141 149 158
195 200 199 198 198 197 194 189 188 193 192 193 189 175 170 174 159 155 152 139 114 119 119 128 149 142 126 106 128 142 145 151 157 156 153 155 158 152 151 153 157 161 163
200 202 202 201 198 195 193 189 190 193 194 192 190 185 181 182 178 175 167 155 141 134 134 128 137 144 141 152 132 136 132 144 141 146 150 160 164 166 163 164 159 156 157
201 204 204 201 199 194 192 190 192 195 197 197 192 193 189 188 189 185 180 168 162 148 152 146 141 137 134 140 146 148 149 151 154 156 160 165 171 170 168 172 172 169 159
204 206 206 202 199 195 193 194 195 198 202 199 193 194 187 190 190 184 192 193 184 171 165 162 162 160 153 146 148 151 151 151 150 157 161 162 165 166 167 178 184 186 198
204 207 207 204 200 197 195 196 199 200 199 196 192 199 190 184 190 193 192 196 202 198 180 175 177 177 175 175 178 180 187 176 169 165 170 174 177 180 180 182 191 195 196
205 206 207 204 202 199 199 200 202 197 195 195 192 198 198 194 194 197 198 200 200 199 195 192 188 187 193 195 197 196 195 197 199 193 185 186 186 184 180 177 177 181 188
201 203 204 205 202 201 203 206 202 196 195 197 197 201 202 201 202 205 206 206 204 203 204 207 207 203 203 205 206 206 202 197 191 192 193 190 189 185 184 183 188 198 209
199 201 203 204 206 202 204 204 203 197 196 199 200 205 208 207 206 212 211 214 218 215 209 212 213 212 216 213 210 211 206 198 188 190 188 187 188 188 189 196 204 210 220
195 196 200 204 207 205 205 204 203 202 199 197 202 206 210 210 211 211 215 218 222 223 226 227 225 227 232 224 213 211 210 207 198 195 194 194 195 197 200 206 214 221 230